Tracking 29892 objects as of 21-Nov-2024
HD Live streaming from Space Station
objects crossing your sky now

STARLINK-1880

Track STARLINK-1880 now!
10-day predictions
STARLINK-1880 is classified as:


NORAD ID: 47165
Int'l Code: 2020-088AV
Perigee: 487.9 km
Apogee: 489.8 km
Inclination: 53.1 °
Period: 94.2 minutes
Semi major axis: 6859 km
RCS: Unknown
Launch date: November 25, 2020
Source: United States (US)
Launch site: AIR FORCE EASTERN TEST RANGE (AFETR)
Your satellite tracking list
Your tracking list is empty




NASA's NSSDC Master Catalog

Two Line Element Set (TLE):
1 47165U 20088AV  24325.91668981  .00358962  00000-0  12351-1 0  9991
2 47165  53.0583 266.6775 0001436  80.6952 322.9806 15.28029217  5789
Source of the keplerian elements: AFSPC